COSMOS 2513

Last updated on Thu Jul 03 2025 00:02:47 GMT+0000 (Coordinated Universal Time)

1 41121U 15075A 25183.58531825 -.00000131 00000+0 00000+0 0 9997 2 41121 0.0674 104.5434 0003952 346.2855 120.9982 1.00271786 35046
UTC large
Height (km)
Speed (km/s)
/
Latitude / Longitude
Inclination (degrees)
Orbital Period (minutes)
Azimuth
Elevation
Range (km)
Doppler Factor

Next 0 passes for location: London (51.5072 / 0.1276)

Sorry there are no passes over London.